Cherry Point, NC

2:36 PM EST on February 17, 2018 (GMT -0500)
Cherry Point Marine Corps Air Station

Weather History for KNKT - January, 2012

Change the Weather History Date:

Thursday, January 19, 2012

  Actual Average Record
Temperature  
Mean Temperature 43 °F -  
Max Temperature 52 °F 51 °F 72 °F (2001)
Min Temperature 34 °F 32 °F 12 °F (2005)
Degree Days  
Heating Degree Days 22    
Moisture  
Dew Point 28 °F    
Average Humidity 61    
Maximum Humidity 82    
Minimum Humidity 35    
Precipitation  
Precipitation 0.00 in - - ()
Sea Level Pressure  
Sea Level Pressure 30.14 in    
Wind  
Wind Speed 6 mph ()    
Max Wind Speed 12 mph    
Max Gust Speed -    
Visibility 10.0 miles    
Events      
Averages and records for this station are not official NWS values.
T = Trace of Precipitation, MM = Missing Value Source: Averaged Metar Reports

Daily Weather History Graph

Daily Weather History Graph

Search for Another Location

Airport or City:

Trip Planner

Search our weather history database for the weather conditions in past years. The results will help you decide how hot, cold, wet, or windy it might be!

Date:

Astronomy

Jan. 19, 2012 Rise Set
Actual Time 7:13 AM EST 5:22 PM EST
Civil Twilight 6:46 AM EST 5:50 PM EST
Nautical Twilight 6:15 AM EST 6:21 PM EST
Astronomical Twilight 5:45 AM EST 6:51 PM EST
Moon 3:45 AM EST (1/19) 1:55 PM EST (1/19)
Length of Visible Light 11h 03m
Length of Day
10h 09m
Waning Crescent, 16% of the Moon is Illuminated
Jan 19
Waning Crescent
Jan 23
New
Jan 30
First Quarter
Feb 7
Full
Feb 14
Last Quarter

Hourly Weather History & Observations

Time (EST) Temp. Windchill Dew Point Humidity Pressure Visibility Wind Dir Wind Speed Gust Speed Precip Events Conditions
12:54 AM 37.9 °F 32.1 °F 28.9 °F 70% 30.08 in 10.0 mi NNE 8.1 mph - N/A   Clear
1:54 AM 39.0 °F 32.3 °F 27.0 °F 62% 30.08 in 10.0 mi North 10.4 mph - N/A   Clear
2:54 AM 37.0 °F 30.4 °F 27.0 °F 67% 30.10 in 10.0 mi North 9.2 mph - N/A   Clear
3:54 AM 36.0 °F 28.0 °F 26.1 °F 67% 30.11 in 10.0 mi North 11.5 mph - N/A   Clear
4:54 AM 35.1 °F 28.6 °F 24.1 °F 64% 30.12 in 10.0 mi North 8.1 mph - N/A   Clear
5:54 AM 34.0 °F 27.2 °F 24.1 °F 67% 30.14 in 10.0 mi North 8.1 mph - N/A   Clear
6:54 AM 34.0 °F 28.0 °F 24.1 °F 67% 30.15 in 10.0 mi North 6.9 mph - N/A   Clear
7:54 AM 35.1 °F 27.4 °F 24.1 °F 64% 30.20 in 10.0 mi North 10.4 mph - N/A   Clear
8:54 AM 37.9 °F 31.5 °F 25.0 °F 60% 30.22 in 10.0 mi North 9.2 mph - N/A   Scattered Clouds
9:54 AM 41.0 °F 35.8 °F 27.0 °F 57% 30.22 in 10.0 mi NNE 8.1 mph - N/A   Partly Cloudy
10:54 AM 44.1 °F 41.5 °F 28.0 °F 53% 30.22 in 10.0 mi NE 4.6 mph - N/A   Partly Cloudy
11:54 AM 46.0 °F - 28.0 °F 50% 30.19 in 10.0 mi Calm Calm - N/A   Partly Cloudy
12:54 PM 48.9 °F - 26.1 °F 41% 30.15 in 10.0 mi Calm Calm - N/A   Partly Cloudy
1:54 PM 51.1 °F - 26.1 °F 38% 30.11 in 10.0 mi Calm Calm - N/A   Partly Cloudy
2:54 PM 51.1 °F - 24.1 °F 35% 30.12 in 10.0 mi Calm Calm - N/A   Scattered Clouds
3:54 PM 52.0 °F - 27.0 °F 38% 30.13 in 10.0 mi NNE 4.6 mph - N/A   Clear
4:54 PM 46.0 °F 44.8 °F 30.9 °F 56% 30.16 in 10.0 mi South 3.5 mph - N/A   Scattered Clouds
5:54 PM 44.1 °F 42.5 °F 30.9 °F 60% 30.17 in 10.0 mi SSE 3.5 mph - N/A   Scattered Clouds
6:54 PM 39.9 °F 37.8 °F 33.1 °F 77% 30.15 in 10.0 mi ESE 3.5 mph - N/A   Clear
7:54 PM 41.0 °F 38.0 °F 32.0 °F 70% 30.14 in 10.0 mi South 4.6 mph - N/A   Clear
8:54 PM 41.0 °F 37.1 °F 32.0 °F 70% 30.11 in 10.0 mi SSE 5.8 mph - N/A   Clear
9:54 PM 41.0 °F - 34.0 °F 76% 30.12 in 10.0 mi Calm Calm - N/A   Partly Cloudy
10:54 PM 42.1 °F - 34.0 °F 73% 30.12 in 10.0 mi Calm Calm - N/A   Clear
11:54 PM 39.0 °F - 34.0 °F 82% 30.12 in 10.0 mi Calm Calm - N/A   Clear